GW6849 Weather Reports


time (UTC)temp
C
wind
direction
speed
KPH
gust
KPH
rain 1hr
cm
rain 24hr
cm
rain mn
cm
humidity
%
barometer
mb
20260505124955 7 180 0.0 0.0 0.00 0.00 0.00 99 1015.5
20260505124451 7 180 0.0 0.0 0.00 0.00 0.00 99 1015.5
20260505123948 7 180 0.0 0.0 0.00 0.00 0.00 99 1015.4
20260505123444 7 180 0.0 0.0 0.00 0.00 0.00 98 1015.5
20260505122940 7 180 0.0 0.0 0.00 0.00 0.00 99 1015.4
20260505122438 7 180 0.0 0.0 0.00 0.00 0.00 98 1015.3
20260505121934 7 180 0.0 0.0 0.00 0.00 0.00 99 1015.4
20260505121432 7 180 0.0 0.0 0.00 0.00 0.00 99 1015.4
20260505120927 7 180 0.0 0.0 0.00 0.00 0.00 99 1015.3
20260505120424 7 180 0.0 0.0 0.00 0.00 0.00 98 1015.3
20260505115923 7 180 0.0 0.0 0.00 0.00 0.00 98 1015.4
20260505115420 7 180 0.0 0.0 0.00 0.00 0.00 98 1015.4
20260505114918 7 181 0.0 0.0 0.00 0.00 0.00 99 1015.4
20260505114414 7 181 0.0 0.0 0.00 0.00 0.00 99 1015.4
20260505113910 6 180 0.0 0.0 0.00 0.00 0.00 98 1015.4
20260505113407 6 180 0.0 0.0 0.00 0.00 0.00 98 1015.1
20260505112903 7 180 0.0 0.0 0.00 0.00 0.00 98 1015.3
20260505112400 7 181 0.0 0.0 0.00 0.00 0.00 98 1015.3
20260505111856 7 180 0.0 0.0 0.00 0.00 0.00 98 1015.4
20260505111351 7 180 0.0 0.0 0.00 0.00 0.00 98 1015.2
20260505110847 7 181 0.0 0.0 0.00 0.00 0.00 98 1015.2
20260505110345 7 180 0.0 0.0 0.00 0.00 0.00 98 1015.3
20260505101815 7 180 0.0 0.0 0.00 0.00 0.00 98 1014.8
20260505101310 7 180 0.0 0.0 0.00 0.00 0.00 98 1014.7
20260505100806 7 181 0.0 0.0 0.00 0.00 0.00 98 1014.7
20260505100303 7 181 0.0 0.0 0.00 0.00 0.00 98 1014.8
20260505095759 7 181 0.0 0.0 0.00 0.00 0.00 98 1014.7
20260505095257 7 181 0.0 0.0 0.00 0.00 0.00 97 1014.8
20260505094752 7 180 0.0 0.0 0.00 0.00 0.00 98 1014.8
20260505094249 7 180 0.0 0.0 0.00 0.00 0.00 98 1014.9
20260505093745 7 180 0.0 0.0 0.00 0.00 0.00 98 1014.6
20260505093243 7 180 0.0 0.0 0.00 0.00 0.00 97 1014.8
20260505092739 7 180 0.0 0.0 0.00 0.00 0.00 97 1014.8
20260505092238 7 180 0.0 0.0 0.00 0.00 0.00 97 1014.6
20260505091735 7 180 0.0 0.0 0.00 0.00 0.00 97 1014.7
20260505091233 7 180 0.0 0.0 0.00 0.00 0.00 97 1014.8
20260505090730 7 180 0.0 0.0 0.00 0.00 0.00 97 1014.7
20260505090229 7 180 0.0 0.0 0.00 0.00 0.00 97 1014.8
20260505085725 7 180 0.0 0.0 0.00 0.00 0.00 97 1014.5
20260505085224 7 180 0.0 0.0 0.00 0.00 0.00 97 1014.7
20260505084721 7 181 0.0 0.0 0.00 0.00 0.00 97 1014.7
20260505084220 7 181 0.0 0.0 0.00 0.00 0.00 97 1014.5
20260505083716 7 181 0.0 0.0 0.00 0.00 0.00 96 1014.4
20260505083213 7 181 0.0 0.0 0.00 0.00 0.00 96 1014.4
20260505082709 7 181 0.0 0.0 0.00 0.00 0.00 96 1014.5
20260505082206 8 180 0.0 0.0 0.00 0.00 0.00 97 1014.6
20260505081702 8 180 0.0 0.0 0.00 0.00 0.00 97 1014.5
20260505081159 7 181 0.0 0.0 0.00 0.00 0.00 96 1014.4
20260505080656 7 181 0.0 0.0 0.00 0.00 0.00 96 1014.4
20260505080152 8 181 0.0 0.0 0.00 0.00 0.00 96 1014.0
20260505075648 7 181 0.0 0.0 0.00 0.00 0.00 96 1014.2
20260505075145 7 181 0.0 0.0 0.00 0.00 0.00 95 1014.3
20260505074642 8 181 0.0 0.0 0.00 0.00 0.00 95 1014.2
20260505074139 8 181 0.0 0.0 0.00 0.00 0.00 95 1014.0
20260505073637 8 181 0.0 0.0 0.00 0.00 0.00 95 1014.2
20260505073135 8 181 0.0 0.0 0.00 0.00 0.00 94 1014.2
20260505072630 8 181 0.0 0.0 0.00 0.00 0.00 91 1014.0
20260505072127 8 181 0.0 0.0 0.00 0.00 0.00 93 1014.0
20260505071623 8 181 0.0 0.0 0.00 0.00 0.00 91 1014.0
20260505071121 8 181 0.0 0.0 0.00 0.00 0.00 94 1013.9
20260505070618 8 181 0.0 0.0 0.00 0.00 0.00 93 1014.0
20260505070114 8 180 0.0 0.0 0.00 0.00 0.00 94 1013.8
20260505065610 9 180 0.0 0.0 0.00 0.00 0.00 94 1013.9
20260505065107 9 180 0.0 0.0 0.00 0.00 0.00 94 1014.0
20260505064603 9 180 0.0 0.0 0.00 0.00 0.00 94 1013.8
20260505064102 9 180 0.0 0.0 0.00 0.00 0.00 94 1014.0
20260505063559 9 180 0.0 0.0 0.00 0.00 0.00 94 1013.9
20260505063055 9 180 0.0 0.0 0.00 0.00 0.00 94 1013.8
20260505062551 9 180 0.0 0.0 0.00 0.00 0.00 94 1014.0
20260505062049 9 180 0.0 0.0 0.00 0.00 0.00 93 1013.9
20260505061546 10 180 0.0 0.0 0.00 0.00 0.00 93 1013.9
20260505061044 10 180 0.0 0.0 0.00 0.00 0.00 93 1014.0
20260505060541 10 180 0.0 0.0 0.00 0.00 0.00 93 1013.8
20260505060037 10 181 0.0 0.0 0.00 0.00 0.00 93 1013.9
20260505055533 10 181 0.0 0.0 0.00 0.00 0.00 93 1013.8
20260505055030 10 181 0.0 0.0 0.00 0.00 0.00 92 1013.8
20260505054527 10 180 0.0 0.0 0.00 0.00 0.00 92 1013.8
20260505054025 10 181 0.0 0.0 0.00 0.00 0.00 92 1013.8
20260505053522 10 181 0.0 0.0 0.00 0.00 0.00 92 1013.9
20260505053019 10 181 0.0 0.0 0.00 0.00 0.00 91 1013.6
20260505052516 10 181 0.0 0.0 0.00 0.00 0.00 91 1013.8
20260505052013 10 181 0.0 0.0 0.00 0.00 0.00 91 1013.9
20260505051510 10 181 0.0 0.0 0.00 0.00 0.00 91 1013.8
20260505051008 11 180 0.0 0.0 0.00 0.00 0.00 90 1013.8
20260505050506 11 181 0.0 0.0 0.00 0.00 0.00 90 1013.7
20260505041433 12 181 0.0 0.0 0.00 0.00 0.00 87 1013.1
20260505040931 12 181 0.0 0.0 0.00 0.00 0.00 87 1012.8
20260505040428 12 181 0.0 0.0 0.00 0.00 0.00 86 1012.6
20260505035925 12 181 0.0 0.0 0.00 0.00 0.00 85 1012.6
20260505035421 12 181 0.0 0.0 0.00 0.00 0.00 85 1012.4
20260505034918 13 181 0.0 0.0 0.00 0.00 0.00 85 1012.2
20260505034414 13 181 0.0 0.0 0.00 0.00 0.00 84 1012.4
20260505033912 13 181 0.0 0.0 0.00 0.00 0.00 84 1012.3
20260505033408 13 181 0.0 0.0 0.00 0.00 0.00 83 1012.2
20260505032907 13 181 0.0 0.0 0.00 0.00 0.00 82 1012.3
20260505032403 14 181 0.0 0.0 0.00 0.00 0.00 80 1012.2
20260505031900 14 181 0.0 0.0 0.00 0.00 0.00 81 1012.2
20260505031357 15 181 0.0 0.0 0.00 0.00 0.00 79 1012.0
20260505030854 15 181 0.0 0.0 0.00 0.00 0.00 79 1011.9
20260505030349 15 181 0.0 0.0 0.00 0.00 0.00 78 1011.8
20260505025845 15 181 0.0 0.0 0.00 0.00 0.00 77 1011.9
20260505025343 15 181 0.0 0.0 0.00 0.00 0.00 77 1011.8
20260505024842 16 181 0.0 0.0 0.00 0.00 0.00 76 1011.7
20260505024339 16 181 0.0 0.0 0.00 0.00 0.00 77 1011.6
20260505023836 16 181 0.0 0.0 0.00 0.00 0.00 77 1011.5
20260505023332 16 137 0.0 0.0 0.00 0.00 0.00 75 1011.5
20260505022830 16 95 0.0 0.0 0.00 0.00 0.00 75 1011.6
20260505022327 17 95 0.0 0.0 0.00 0.00 0.00 73 1011.4
20260505021824 17 237 0.0 0.0 0.00 0.00 0.00 72 1011.5
20260505021321 17 147 4.8 4.8 0.00 0.00 0.00 68 1011.5
20260505020816 17 134 0.0 0.0 0.00 0.00 0.00 72 1011.7
20260505020312 17 124 1.6 1.6 0.00 0.00 0.00 72 1011.6
20260505015809 17 145 3.2 4.8 0.00 0.00 0.00 68 1011.6
20260505015306 18 348 0.0 0.0 0.00 0.00 0.00 69 1011.5
20260505014804 18 170 1.6 3.2 0.00 0.00 0.00 65 1011.5
20260505014301 18 149 3.2 4.8 0.00 0.00 0.00 69 1011.3
20260505013757 18 93 1.6 3.2 0.00 0.00 0.00 65 1011.5
20260505013254 19 169 0.0 1.6 0.00 0.00 0.00 63 1011.5
20260505012753 20 129 4.8 4.8 0.00 0.00 0.00 64 1011.5
20260505012250 20 100 0.0 0.0 0.00 0.00 0.00 61 1011.6
20260505011745 21 349 0.0 1.6 0.00 0.00 0.00 59 1011.6
20260505011242 22 150 4.8 4.8 0.00 0.00 0.00 58 1011.8
20260505010738 22 266 0.0 1.6 0.00 0.00 0.00 59 1011.5
20260505010234 22 265 3.2 3.2 0.00 0.00 0.00 57 1011.7
20260505005731 23 306 0.0 1.6 0.00 0.00 0.00 54 1011.6
20260505005228 22 266 0.0 1.6 0.00 0.00 0.00 56 1011.7
20260505004725 22 279 4.8 4.8 0.00 0.00 0.00 56 1011.8
20260505004222 21 255 1.6 3.2 0.00 0.00 0.00 60 1011.6
20260505003719 22 222 4.8 6.4 0.00 0.00 0.00 58 1011.7
20260505003217 22 300 0.0 0.0 0.00 0.00 0.00 56 1011.7
20260505002713 22 320 1.6 4.8 0.00 0.00 0.00 56 1011.9
20260505002210 21 231 1.6 1.6 0.00 0.00 0.00 59 1011.8
20260505001708 21 164 1.6 4.8 0.00 0.00 0.00 59 1011.7
20260505001205 22 307 3.2 4.8 0.00 0.00 0.00 58 1011.8
20260505000702 21 120 3.2 3.2 0.00 0.00 0.00 58 1011.8
20260505000200 20 153 3.2 4.8 0.00 0.00 0.00 61 1012.0
20260504235656 20 206 3.2 3.2 0.00 0.00 0.00 61 1012.0
20260504235152 21 259 6.4 9.7 0.00 0.00 0.00 57 1012.0
20260504234650 21 267 6.4 9.7 0.00 0.00 0.00 56 1012.1
20260504234147 21 256 4.8 4.8 0.00 0.00 0.00 59 1012.0
20260504233643 21 279 6.4 6.4 0.00 0.00 0.00 59 1011.9
20260504233139 21 257 1.6 3.2 0.00 0.00 0.00 58 1012.1
20260504232637 21 283 11.3 16.1 0.00 0.00 0.00 58 1012.0
20260504232133 21 28 3.2 4.8 0.00 0.00 0.00 61 1012.1
20260504231630 21 293 4.8 6.4 0.00 0.00 0.00 57 1012.2
20260504231126 21 248 3.2 4.8 0.00 0.00 0.00 58 1012.1
20260504230622 21 239 6.4 6.4 0.00 0.00 0.00 58 1012.2
20260504230122 21 210 12.9 17.7 0.00 0.00 0.00 57 1012.3
20260504225619 21 239 6.4 11.3 0.00 0.00 0.00 60 1012.1
20260504225115 21 261 9.7 12.9 0.00 0.00 0.00 59 1012.0
20260504224612 21 248 3.2 4.8 0.00 0.00 0.00 60 1012.3
20260504224109 22 308 12.9 16.1 0.00 0.00 0.00 59 1012.2
20260504223606 21 238 9.7 11.3 0.00 0.00 0.00 58 1012.3
20260504223102 21 301 3.2 3.2 0.00 0.00 0.00 59 1012.6
20260504222559 22 307 14.5 17.7 0.00 0.00 0.00 58 1012.4
20260504222056 21 262 6.4 6.4 0.00 0.00 0.00 58 1012.4
20260504221553 21 268 3.2 4.8 0.00 0.00 0.00 59 1012.3
20260504221050 22 302 9.7 12.9 0.00 0.00 0.00 57 1012.5
20260504220546 21 258 4.8 6.4 0.00 0.00 0.00 59 1012.7
20260504220044 21 259 3.2 4.8 0.00 0.00 0.00 59 1012.7
20260504215540 22 275 0.0 1.6 0.00 0.00 0.00 58 1012.7
20260504215038 21 286 1.6 3.2 0.00 0.00 0.00 57 1012.9
20260504214533 22 204 9.7 9.7 0.00 0.00 0.00 57 1012.8
20260504214030 21 280 3.2 3.2 0.00 0.00 0.00 59 1012.8
20260504213526 21 313 4.8 12.9 0.00 0.00 0.00 58 1012.9
20260504213024 21 250 11.3 14.5 0.00 0.00 0.00 58 1012.9
20260504212519 21 265 9.7 12.9 0.00 0.00 0.00 60 1013.0
20260504212017 21 262 3.2 4.8 0.00 0.00 0.00 59 1013.0
20260504211514 21 308 3.2 6.4 0.00 0.00 0.00 58 1013.0
20260504211011 22 346 1.6 1.6 0.00 0.00 0.00 58 1013.3
20260504210508 20 325 1.6 3.2 0.00 0.00 0.00 59 1013.2
20260504210005 21 293 4.8 6.4 0.00 0.00 0.00 59 1013.2
20260504205502 21 280 0.0 1.6 0.00 0.00 0.00 59 1013.3
20260504205000 21 313 6.4 9.7 0.00 0.00 0.00 58 1013.3
20260504204458 21 301 1.6 3.2 0.00 0.00 0.00 60 1013.4
20260504203957 20 7 3.2 4.8 0.00 0.00 0.00 59 1013.3
20260504203454 21 358 0.0 0.0 0.00 0.00 0.00 61 1013.5
20260504202950 21 316 0.0 1.6 0.00 0.00 0.00 63 1013.6
20260504202447 21 289 0.0 0.0 0.00 0.00 0.00 59 1013.4
20260504201944 20 194 4.8 6.4 0.00 0.00 0.00 62 1013.5
20260504201441 20 238 1.6 3.2 0.00 0.00 0.00 61 1013.4
20260504200938 20 242 4.8 6.4 0.00 0.00 0.00 61 1013.4
20260504200435 20 308 0.0 0.0 0.00 0.00 0.00 61 1013.4
20260504195932 20 266 1.6 3.2 0.00 0.00 0.00 63 1013.6
20260504195427 20 285 4.8 9.7 0.00 0.00 0.00 63 1013.6
20260504194924 20 291 4.8 9.7 0.00 0.00 0.00 61 1013.6
20260504194420 19 315 3.2 4.8 0.00 0.00 0.00 67 1013.4
20260504193916 19 254 3.2 4.8 0.00 0.00 0.00 63 1013.5
20260504193414 18 228 6.4 9.7 0.00 0.00 0.00 64 1013.5
20260504192913 20 285 6.4 9.7 0.00 0.00 0.00 63 1013.4
20260504192409 18 306 8.0 11.3 0.00 0.00 0.00 63 1013.5
20260504191908 19 281 4.8 6.4 0.00 0.00 0.00 64 1013.7
20260504191406 18 312 3.2 4.8 0.00 0.00 0.00 68 1013.7
20260504190901 19 258 3.2 4.8 0.00 0.00 0.00 65 1013.8
20260504190357 19 315 3.2 4.8 0.00 0.00 0.00 61 1013.8
20260504185854 20 275 1.6 3.2 0.00 0.00 0.00 61 1013.7
20260504185351 18 307 1.6 3.2 0.00 0.00 0.00 66 1013.8
20260504184847 19 244 3.2 3.2 0.00 0.00 0.00 64 1013.8
20260504184343 18 350 0.0 0.0 0.00 0.00 0.00 67 1013.9
20260504183839 18 264 8.0 9.7 0.00 0.00 0.00 68 1013.8
20260504183336 18 319 3.2 4.8 0.00 0.00 0.00 68 1013.9
20260504182834 17 303 9.7 12.9 0.00 0.00 0.00 68 1013.7
20260504182331 18 299 6.4 11.3 0.00 0.00 0.00 65 1013.8
20260504181828 18 310 0.0 1.6 0.00 0.00 0.00 66 1013.7
20260504181325 18 237 3.2 4.8 0.00 0.00 0.00 67 1013.9
20260504180824 19 323 0.0 1.6 0.00 0.00 0.00 62 1013.7
20260504180322 18 269 0.0 1.6 0.00 0.00 0.00 65 1013.9
20260504175820 17 291 0.0 1.6 0.00 0.00 0.00 66 1013.7
20260504175316 17 263 0.0 0.0 0.00 0.00 0.00 70 1013.8
20260504174815 17 310 8.0 9.7 0.00 0.00 0.00 73 1013.9
20260504174312 17 253 3.2 3.2 0.00 0.00 0.00 69 1013.9
20260504173808 16 253 1.6 3.2 0.00 0.00 0.00 71 1013.9
20260504173305 17 11 1.6 3.2 0.00 0.00 0.00 71 1013.9
20260504172802 16 311 0.0 1.6 0.00 0.00 0.00 73 1013.9
20260504172259 15 351 1.6 1.6 0.00 0.00 0.00 78 1014.1
20260504171754 16 303 1.6 1.6 0.00 0.00 0.00 76 1014.0
20260504171252 15 320 4.8 4.8 0.00 0.00 0.00 75 1014.0
20260504170749 15 344 0.0 0.0 0.00 0.00 0.00 78 1013.9
20260504170246 14 335 1.6 3.2 0.00 0.00 0.00 80 1014.1
20260504160204 13 346 0.0 1.6 0.00 0.00 0.00 83 1014.0
20260504151132 11 308 0.0 0.0 0.00 0.00 0.00 90 1013.8
20260504150630 11 308 0.0 1.6 0.00 0.00 0.00 91 1013.9
20260504150126 11 309 0.0 1.6 0.00 0.00 0.00 92 1013.7
20260504141055 10 115 0.0 0.0 0.00 0.00 0.00 92 1013.2
20260504140552 10 114 0.0 0.0 0.00 0.00 0.00 91 1013.1